GFSNW_sfc_thetae_015.txt.gz
Theta_e
307 307 308 308 308 305 298 289 283 294 304 289 288 284 287 291 289 291 289 289 287 286 286 285 284 285 289 296 295 290 292 288 286 290 294 298 295 292 291 287 285 288 287 289
307 307 307 308 307 305 298 287 285 296 297 282 284 287 288 289 288 288 288 287 290 290 287 283 286 289 295 295 293 290 293 287 284 285 290 293 292 293 294 290 289 287 288 290
307 307 307 308 307 306 294 289 282 285 292 289 286 284 284 285 291 288 289 288 290 288 286 289 286 287 291 294 293 299 294 287 287 285 288 292 289 293 293 292 288 289 290 291
308 308 308 308 307 305 294 286 282 287 279 281 283 285 285 284 285 288 289 286 287 286 284 286 286 289 290 293 295 293 288 283 290 293 293 293 293 293 293 292 293 291 293 294
307 308 308 308 307 303 291 289 287 290 288 285 283 283 285 285 287 288 286 286 288 289 285 287 286 289 290 288 291 291 288 282 288 290 294 293 291 293 294 295 295 295 295 294
306 307 308 308 307 300 289 292 297 291 287 282 279 281 286 285 288 290 291 290 288 286 289 293 294 294 293 293 290 288 286 285 284 284 293 291 287 292 293 295 298 298 293 296
304 305 307 307 307 302 295 292 296 288 283 285 285 286 287 286 287 286 290 290 285 290 296 296 295 293 292 294 292 293 286 284 284 282 288 280 292 297 297 296 298 299 298 299
304 304 306 307 308 307 299 295 295 291 283 287 286 288 287 287 288 286 288 290 292 292 290 287 285 287 288 289 292 292 291 285 282 282 283 289 293 297 295 293 294 300 301 299
304 304 305 307 307 307 298 293 294 294 286 284 289 288 288 286 286 285 288 292 295 291 287 284 280 279 284 285 290 296 294 289 284 285 280 281 291 299 301 300 292 301 300 300
305 305 305 306 307 307 300 300 296 297 289 292 292 288 288 292 290 286 287 291 290 292 286 276 279 282 288 282 284 285 286 284 282 283 282 290 296 300 304 291 291 302 306 302
305 305 306 306 307 307 303 300 298 297 292 293 295 295 291 292 291 287 288 289 290 290 282 283 285 285 287 285 287 286 285 285 284 286 285 285 299 298 293 296 300 302 307 308
305 306 306 307 308 307 306 297 299 302 295 292 297 297 298 297 296 292 290 288 290 290 287 287 289 286 288 286 282 290 285 289 287 290 292 297 299 296 300 300 298 299 300 310
305 306 306 307 307 308 306 299 299 298 295 291 288 290 295 300 299 300 288 289 292 294 296 292 291 285 288 282 285 286 291 295 291 291 297 296 298 299 299 300 299 301 303 311
305 306 306 306 307 307 305 299 298 298 295 288 287 296 294 300 300 299 297 293 293 293 291 291 291 287 292 287 288 288 290 293 289 291 296 296 299 297 298 300 301 302 304 310
306 306 306 306 305 307 300 296 296 298 292 284 286 293 297 298 299 298 297 294 290 289 289 285 285 291 292 292 292 289 294 290 288 288 295 295 296 298 300 299 299 302 303 308
306 306 306 307 306 305 294 289 296 297 296 290 281 290 295 298 301 301 299 294 295 294 291 288 288 291 292 288 286 293 296 297 297 294 299 300 300 301 304 300 300 303 304 308
305 305 306 307 306 295 292 290 295 301 298 290 287 287 295 298 299 298 297 294 291 290 290 287 287 288 290 287 284 292 295 298 298 300 299 299 299 297 302 302 302 305 306 308
304 305 307 306 305 300 294 297 301 300 293 292 287 285 288 297 294 293 295 293 288 288 287 288 286 287 287 284 290 292 293 295 298 298 301 300 300 301 302 303 303 303 304 306
304 306 306 300 295 292 295 307 302 298 293 287 288 285 284 297 293 295 292 291 286 291 289 290 289 283 283 290 290 290 291 293 296 300 301 300 300 300 301 302 302 302 303 307
305 299 295 290 296 306 304 296 293 294 295 294 289 292 286 293 294 292 289 289 287 284 289 290 288 287 293 295 294 294 294 295 296 294 295 298 299 299 299 300 303 303 305 306
294 291 290 295 302 296 292 287 286 288 289 294 293 292 291 296 289 288 290 286 286 279 287 287 287 287 291 296 296 297 296 297 297 297 298 299 301 300 299 300 302 303 305 304
294 297 300 296 293 289 286 282 286 286 285 291 289 289 291 294 293 286 288 284 282 280 290 287 285 290 295 296 296 297 298 298 297 298 298 300 301 303 300 300 301 302 305 304
301 297 294 288 287 280 282 281 283 286 288 290 289 287 290 290 290 288 286 281 281 286 280 284 287 292 294 296 297 298 300 300 299 299 299 300 301 303 305 302 302 306 305 304
293 290 279 282 281 281 283 283 285 289 289 290 289 287 287 287 285 288 280 282 282 281 279 282 288 292 294 296 299 299 299 300 300 300 300 300 300 302 305 306 304 303 303 304
292 288 279 282 287 288 289 290 289 291 291 288 287 287 287 282 284 287 281 280 272 278 282 287 291 293 294 296 298 299 299 300 300 301 301 300 300 300 301 304 305 306 305 304
296 291 286 287 287 287 288 288 288 290 289 289 288 284 283 282 285 279 281 281 279 283 286 291 292 292 293 296 298 298 300 301 301 302 302 303 301 300 301 303 304 305 306 308
292 287 291 288 287 287 288 288 290 290 289 285 286 282 282 283 277 279 285 283 286 290 291 292 292 291 293 297 298 299 301 300 301 302 303 303 305 303 301 301 303 305 305 307

GFSNW_sfc_thetae_021.txt.gz
Theta_e
307 307 307 308 308 306 302 294 289 299 304 290 288 284 287 290 289 292 289 289 287 285 285 284 285 284 287 292 292 288 293 293 289 292 298 300 298 296 296 290 289 293 292 293
305 305 306 307 307 306 300 290 289 300 302 283 284 287 286 289 288 288 288 287 288 289 286 283 287 288 293 293 291 288 292 291 287 289 294 298 295 296 298 297 297 291 289 293
305 304 305 306 306 306 300 293 285 292 294 292 286 284 284 285 291 289 290 289 290 288 286 289 286 287 291 293 292 295 295 289 288 287 291 294 292 294 296 296 291 291 292 294
305 305 304 306 306 305 299 292 287 289 283 287 287 286 285 284 284 289 290 288 288 287 284 286 286 288 290 293 294 294 292 285 288 290 291 292 293 294 294 293 294 291 293 295
305 304 304 305 305 303 297 290 290 292 288 288 286 286 284 284 286 287 285 286 288 288 285 286 284 288 288 289 292 292 293 287 289 289 292 293 292 295 295 295 296 296 297 298
304 305 305 305 306 303 294 293 295 292 288 286 285 285 286 286 288 290 290 289 287 286 289 292 293 293 293 292 290 290 290 289 287 287 290 292 289 294 295 296 297 297 294 300
304 305 306 306 306 305 300 298 295 289 284 286 286 287 288 288 288 286 288 291 288 292 296 296 296 294 293 292 293 294 289 288 288 286 290 283 295 301 300 298 298 300 300 302
305 305 306 307 307 306 301 301 295 291 284 288 287 287 287 289 290 289 290 292 294 296 294 288 286 287 288 290 291 292 294 290 287 285 288 292 296 297 296 297 297 301 302 305
305 304 305 307 307 307 303 302 301 295 287 287 290 287 288 286 287 288 291 296 298 295 290 288 281 280 284 284 288 293 293 293 287 287 284 285 293 298 301 301 294 300 301 302
305 304 306 306 307 308 305 301 301 296 289 292 292 288 287 291 289 287 289 292 292 293 288 285 283 283 288 283 285 285 286 287 284 286 286 291 297 299 301 293 293 301 301 302
304 304 306 306 307 308 306 302 302 297 292 292 294 294 291 292 291 287 291 289 292 290 285 285 285 285 288 287 289 288 287 285 285 287 286 286 301 298 294 297 301 301 302 303
304 304 305 306 307 308 307 300 302 302 294 292 299 297 298 297 296 292 292 291 291 293 287 288 287 286 287 287 284 293 286 291 288 290 290 297 299 299 302 301 301 302 303 305
304 305 305 306 307 307 306 302 301 299 293 294 294 294 298 300 299 301 289 294 295 295 296 291 288 286 289 284 285 285 291 294 291 291 293 295 298 300 301 302 302 303 305 306
304 305 305 305 306 306 305 301 303 299 294 288 292 298 298 302 302 300 298 296 297 296 296 292 291 288 293 288 288 289 291 293 291 291 294 295 298 298 300 300 303 303 305 306
304 305 305 305 305 305 306 303 304 303 295 290 292 298 299 302 302 301 299 297 295 294 292 292 290 293 292 294 293 288 293 291 290 290 295 293 294 299 300 300 301 304 303 305
303 304 304 304 305 304 301 296 300 301 299 292 287 297 297 300 302 301 300 299 296 295 294 294 295 295 294 289 289 292 294 295 297 295 299 298 299 301 302 300 302 304 304 306
304 304 304 306 306 302 297 296 300 301 301 293 288 289 297 299 301 301 300 298 298 296 295 294 293 294 294 291 287 293 295 296 297 298 300 298 299 298 302 302 302 304 305 306
303 303 305 306 305 303 301 303 303 303 299 296 287 290 293 299 295 294 299 296 296 295 294 295 292 294 293 288 293 294 295 296 296 298 299 299 300 300 302 303 303 303 303 304
302 303 305 303 300 298 300 305 305 303 297 292 290 286 286 299 297 296 295 295 291 296 291 292 292 288 287 290 291 292 293 293 296 297 298 299 299 300 301 301 302 302 303 304
301 302 299 295 298 304 306 300 296 296 296 294 289 294 288 294 294 292 291 292 288 287 290 294 288 288 293 294 294 295 297 297 298 296 294 296 297 299 300 300 302 303 305 304
295 292 294 298 302 300 296 293 291 293 291 295 295 294 291 297 291 289 292 289 289 285 289 288 288 287 292 297 296 298 300 301 300 300 300 300 300 299 300 301 302 304 305 306
294 294 297 297 297 293 289 288 290 291 290 294 294 295 295 295 296 291 292 287 289 282 291 288 286 291 297 297 296 298 300 301 300 302 302 302 303 303 302 303 303 304 306 306
299 295 293 293 292 286 286 284 287 288 293 295 295 293 295 293 294 289 290 285 285 290 288 287 290 296 297 297 297 298 300 302 301 302 303 304 304 305 305 304 305 306 306 306
292 291 286 287 287 288 290 291 292 295 293 294 294 293 294 294 290 290 285 287 287 284 283 285 293 297 297 298 299 299 299 300 300 301 301 302 303 304 306 307 306 305 305 307
290 293 286 288 293 293 294 294 294 296 296 294 292 292 292 291 288 289 286 283 282 283 287 293 298 299 298 298 299 299 300 301 301 302 301 302 303 303 304 307 308 307 306 306
292 293 291 292 290 291 292 293 294 297 294 294 293 290 288 287 287 284 282 282 281 288 289 297 299 298 299 299 300 301 301 302 302 303 303 304 303 302 303 304 306 308 307 307
295 293 296 294 293 293 294 295 295 296 295 292 292 288 287 288 285 283 286 284 290 294 298 299 299 298 298 299 300 301 301 302 302 303 303 302 303 305 303 302 303 305 307 309

GFSNW_sfc_thetae_024.txt.gz
Theta_e
305 305 305 306 306 305 304 301 295 305 309 294 294 287 289 292 292 294 291 291 289 287 288 287 287 286 289 294 293 289 297 296 292 295 301 303 302 300 300 295 294 297 296 296
306 306 306 305 306 306 302 297 297 306 305 287 288 290 290 291 291 291 290 289 291 292 289 285 288 290 294 294 293 290 294 293 290 293 298 301 299 300 302 302 302 296 293 296
305 306 306 305 305 306 303 298 292 299 300 295 289 287 288 288 292 291 292 291 293 291 289 291 288 289 293 294 294 295 296 294 293 290 294 298 296 298 301 300 296 297 296 299
305 306 306 306 305 305 303 298 293 294 289 291 290 289 288 286 286 291 293 290 290 288 286 288 286 289 291 294 295 295 294 291 295 296 295 296 298 298 299 298 300 296 298 298
305 305 306 306 306 305 300 295 292 293 292 291 288 289 288 288 289 290 288 289 291 291 288 288 287 289 290 287 292 292 295 290 295 292 296 296 295 298 299 299 300 300 300 299
306 306 306 306 306 305 298 298 300 294 290 289 287 289 289 288 289 292 292 290 290 289 292 295 296 297 296 293 291 291 292 291 292 289 296 295 292 297 299 300 301 301 297 302
306 306 305 307 307 306 304 301 298 291 287 288 288 289 289 289 290 287 293 293 290 295 299 299 299 298 297 296 295 296 292 291 294 291 294 286 299 304 303 301 302 302 302 305
305 306 306 307 307 307 304 305 298 292 287 290 290 291 289 291 293 291 292 294 296 298 296 290 290 290 291 293 294 294 296 292 289 289 290 295 298 301 301 300 300 305 305 307
305 305 306 307 307 307 305 306 304 296 288 290 293 289 291 289 290 292 293 298 300 296 292 289 284 284 285 286 290 295 294 295 289 292 287 286 298 302 305 305 298 305 306 306
304 305 305 306 307 308 307 305 306 298 289 295 294 290 290 293 292 288 292 294 294 296 290 286 286 286 290 285 286 287 287 290 286 288 291 295 301 303 305 295 297 306 307 308
304 305 305 305 308 308 308 305 308 300 293 295 297 296 293 293 293 288 293 292 294 292 286 287 287 287 290 289 289 288 287 286 286 287 289 289 303 303 299 301 307 308 309 310
304 304 305 305 306 308 307 302 308 306 295 296 302 302 302 300 300 294 294 292 291 292 289 291 288 286 290 290 286 294 289 292 291 291 290 297 304 302 306 306 306 307 308 310
304 304 305 305 305 306 306 304 305 302 295 297 300 299 302 304 302 303 289 294 296 295 299 292 291 286 288 286 288 288 292 295 292 293 295 295 298 303 305 306 306 308 310 310
304 305 305 305 305 306 306 304 306 302 297 290 298 305 303 304 303 301 299 295 297 297 297 294 293 290 294 290 290 291 294 295 293 294 296 297 299 300 302 303 305 306 310 311
304 304 305 305 304 305 305 307 308 306 297 293 296 303 304 305 303 302 301 297 295 295 294 293 293 295 295 297 293 290 293 291 290 291 297 295 296 300 302 303 302 304 308 309
303 304 304 304 305 305 306 301 307 308 301 293 289 303 301 304 305 303 303 302 298 298 298 296 298 299 296 291 291 294 297 299 298 296 301 301 302 303 303 301 303 305 307 310
304 304 304 305 306 306 303 301 305 304 302 294 292 297 303 304 305 308 304 303 304 301 300 298 298 296 298 293 289 294 297 297 299 302 302 300 303 301 303 303 306 306 309 311
304 303 303 307 306 305 304 308 304 305 301 299 290 296 298 305 299 300 305 300 302 301 298 299 297 297 297 291 294 294 296 296 298 299 301 302 303 304 304 305 305 305 306 309
303 303 305 307 306 305 305 305 305 307 300 293 295 290 288 304 298 298 301 302 294 302 295 294 295 292 289 291 292 293 295 295 297 299 301 302 301 302 304 305 305 305 305 308
303 304 304 302 305 304 306 301 298 297 299 298 293 299 292 299 297 295 296 300 297 293 296 298 292 293 297 296 296 297 298 299 300 298 297 300 301 302 303 304 305 306 307 308
302 298 297 301 304 304 302 296 295 297 294 298 298 299 295 301 293 291 296 295 298 292 294 293 294 291 296 300 301 301 302 301 301 301 302 303 303 301 304 305 306 307 307 308
298 297 299 298 297 299 294 295 297 295 293 299 298 299 300 300 301 294 297 291 295 288 298 293 289 295 299 300 301 302 303 302 301 302 302 305 306 306 306 307 307 308 309 309
301 295 292 294 298 288 289 287 292 293 297 299 299 297 301 299 300 296 294 286 290 297 293 291 296 298 300 301 301 302 304 304 304 302 302 303 304 306 307 307 309 311 310 309
295 291 287 292 291 293 295 295 297 300 299 300 300 299 298 299 295 296 285 294 295 289 286 289 297 300 301 303 303 302 302 303 304 304 304 304 303 303 306 306 307 308 310 310
292 294 287 292 297 300 300 301 300 301 304 301 299 299 298 296 293 294 292 288 286 288 290 298 301 302 303 303 303 303 303 303 303 304 303 302 303 304 305 306 306 306 308 310
293 295 294 298 296 296 298 298 298 303 302 303 301 296 293 292 294 287 286 285 283 288 295 301 303 302 303 304 304 304 304 304 304 305 304 305 303 303 305 305 303 303 303 304
294 295 300 297 297 296 297 299 299 304 300 295 297 289 289 296 291 289 290 286 290 299 301 304 304 303 303 304 304 304 304 304 304 305 305 304 307 306 306 302 303 304 306 305

GFSNW_sfc_thetae_030.txt.gz
Theta_e
307 307 307 307 307 305 305 306 297 309 312 298 298 292 293 295 294 295 292 293 291 289 290 288 289 289 292 297 297 291 294 291 287 290 299 300 299 297 298 294 293 297 297 297
307 307 307 307 307 306 303 302 301 310 307 292 292 294 293 295 293 293 293 291 293 294 290 286 288 290 296 296 294 293 295 291 285 287 293 299 296 299 301 302 303 297 294 297
307 307 307 307 306 306 305 303 296 300 301 300 292 291 291 290 297 295 295 293 294 291 289 292 289 288 294 297 296 298 296 290 288 284 289 293 293 298 299 300 296 297 299 301
306 307 307 307 306 306 305 302 298 299 292 294 294 293 291 290 289 294 295 292 292 291 287 288 289 292 293 296 296 296 293 285 289 291 291 292 293 296 298 298 301 297 300 303
306 306 307 307 306 306 304 299 295 298 294 296 294 293 291 290 292 292 290 291 293 293 289 290 288 291 292 291 295 291 294 287 290 289 292 291 289 294 298 300 301 302 302 304
306 306 307 307 307 306 302 303 303 297 294 295 293 292 291 292 293 295 294 294 293 292 293 296 297 297 297 295 293 292 292 290 288 285 291 290 287 295 298 301 304 304 300 307
306 306 307 307 307 307 303 302 302 295 290 293 293 294 293 292 293 291 296 297 294 297 302 301 300 299 297 295 296 297 292 290 290 287 289 279 294 305 304 302 305 307 306 307
305 306 306 307 307 307 305 304 302 297 290 293 293 294 293 295 296 294 295 297 300 302 298 292 291 292 292 294 296 296 297 292 289 287 286 289 296 302 301 301 302 308 307 308
304 305 306 306 307 307 306 305 306 301 292 294 296 294 295 291 291 293 295 300 303 302 295 291 285 283 287 288 292 298 297 296 291 288 285 282 294 302 307 308 297 309 311 311
306 306 305 305 306 307 305 305 311 302 293 298 298 295 293 296 293 291 294 295 296 301 292 287 286 286 292 286 287 290 291 290 288 288 286 287 298 303 308 295 297 310 312 312
306 307 306 305 306 306 305 304 310 303 297 299 301 302 298 298 296 289 293 291 295 295 290 289 287 287 289 289 290 289 290 288 289 291 287 283 298 301 296 301 307 308 311 312
306 306 307 306 306 306 306 300 309 312 300 299 305 305 307 305 303 296 294 291 292 294 290 292 291 288 289 289 285 295 288 290 287 291 289 296 300 300 303 305 306 308 309 312
305 306 307 307 306 306 305 301 305 304 298 301 303 302 308 310 307 308 294 294 296 295 299 293 293 287 292 286 288 288 293 296 291 292 294 296 299 302 305 306 306 309 310 312
305 306 307 306 306 306 304 301 307 304 299 293 300 310 305 311 310 308 306 301 300 298 298 294 294 291 299 290 292 292 294 296 293 292 296 298 299 302 304 305 307 308 311 312
306 306 307 307 306 305 305 305 308 308 300 294 297 304 309 310 309 306 305 303 297 295 295 295 294 299 297 299 294 292 296 295 292 290 297 298 298 302 305 305 306 308 309 310
306 306 306 306 305 305 306 301 310 311 306 297 293 305 306 307 308 306 304 304 299 299 297 297 302 304 299 292 289 295 297 299 300 296 301 301 303 304 304 304 306 309 309 311
306 305 306 305 305 306 305 302 304 309 310 297 294 298 306 307 307 306 304 306 304 302 301 301 301 301 302 296 289 296 298 299 300 302 301 300 301 300 304 306 307 309 311 311
306 306 305 305 306 306 305 310 306 309 306 302 292 295 299 308 301 299 306 300 303 303 301 301 299 300 298 292 296 299 298 298 300 301 303 303 304 305 305 306 307 307 308 310
305 305 305 306 306 305 305 306 306 310 305 296 295 293 291 305 302 302 302 303 297 304 299 299 300 295 292 295 297 298 300 298 298 301 303 303 303 304 304 305 305 305 307 309
304 305 305 302 303 306 307 303 300 298 299 299 295 300 298 301 300 299 298 301 298 293 299 301 298 295 300 301 302 302 301 300 301 299 299 301 302 303 304 305 306 307 307 309
306 302 300 306 307 305 303 297 294 296 294 298 300 300 298 304 298 297 299 296 297 292 296 294 294 293 298 301 301 302 304 304 303 302 303 305 304 303 304 305 307 308 309 309
300 299 302 304 300 298 294 293 298 296 295 300 299 299 303 303 304 298 298 294 296 290 300 295 291 296 301 301 301 302 304 303 304 304 303 304 304 305 306 305 305 307 310 310
302 297 294 294 296 289 290 289 294 294 299 300 300 298 302 303 301 296 295 290 291 300 294 292 295 300 300 301 302 302 304 303 304 304 305 304 304 303 303 303 305 306 307 308
297 293 287 291 291 295 296 297 298 301 301 299 299 299 299 301 297 297 290 294 297 289 288 288 299 300 302 303 303 302 302 303 303 303 305 304 305 304 305 305 304 304 303 305
297 297 288 293 299 301 302 303 302 303 303 301 299 299 300 297 295 296 293 289 287 290 291 298 303 303 304 304 303 303 303 303 303 304 304 304 305 305 305 305 305 304 303 304
297 297 296 300 299 300 301 301 300 304 302 303 300 296 293 294 295 291 290 288 286 291 301 301 305 304 305 305 304 304 303 303 304 304 304 304 304 304 305 305 305 304 304 302
294 295 301 299 299 299 301 303 303 306 301 297 297 292 292 297 293 291 296 290 296 301 301 303 305 304 304 306 304 304 304 304 304 305 305 305 305 306 306 304 305 305 305 304

GFSNW_sfc_thetae_033.txt.gz
Theta_e
307 307 308 308 307 305 303 300 293 305 306 292 292 286 291 294 293 296 294 292 291 288 288 287 286 286 290 295 295 289 292 287 283 286 293 296 293 290 289 284 284 289 288 289
307 306 307 307 307 306 300 295 298 306 304 286 286 292 292 293 292 292 292 290 292 292 289 285 289 289 295 295 293 290 291 285 279 283 289 294 291 294 293 291 291 288 286 290
307 306 307 307 306 306 302 297 291 297 298 295 290 289 289 289 295 293 293 291 293 290 288 290 288 289 293 295 295 299 294 286 284 280 285 290 288 291 294 293 288 288 291 293
307 306 307 307 306 306 302 298 293 295 286 288 290 292 290 288 288 293 293 290 291 289 285 286 286 290 291 294 297 293 293 284 287 287 290 291 289 289 291 289 291 289 293 295
307 306 307 307 306 305 301 295 292 295 292 292 291 292 290 290 290 290 289 289 291 291 287 288 286 289 289 287 293 291 292 287 288 286 290 291 288 290 291 291 292 293 295 296
306 306 306 307 306 305 299 300 300 296 292 290 288 289 291 291 292 293 293 292 291 290 292 294 294 294 293 292 289 288 289 288 287 283 291 289 284 289 290 292 294 295 292 299
307 306 306 306 306 306 302 300 299 293 288 290 290 291 293 292 293 290 293 295 292 296 299 298 296 295 294 294 293 293 289 288 288 285 287 274 289 301 301 299 297 304 304 305
307 307 307 306 306 306 302 302 299 295 288 291 292 292 292 293 294 291 292 294 296 298 295 290 287 287 291 293 294 292 292 289 285 284 284 288 293 296 295 295 300 306 306 308
307 307 307 307 306 306 303 300 304 298 291 289 294 292 293 290 291 290 293 297 298 296 291 287 282 282 286 287 290 297 293 293 288 286 282 280 288 296 300 301 294 305 308 308
307 307 307 307 306 305 303 300 302 300 292 296 296 292 292 296 294 290 292 293 292 296 288 284 284 283 289 284 284 287 288 288 285 286 284 287 293 297 303 292 294 305 309 309
306 307 307 307 307 306 303 300 302 298 296 297 299 299 295 295 294 290 292 289 290 288 283 284 285 283 287 287 289 289 287 286 285 287 286 282 296 297 293 298 303 306 306 309
306 306 307 307 308 308 306 297 302 308 300 297 303 303 303 301 300 295 293 290 291 290 288 287 288 286 286 286 283 292 286 289 286 287 287 296 299 298 302 303 303 304 306 309
306 306 307 307 308 306 305 300 300 300 298 297 298 299 305 307 305 304 291 294 295 293 296 291 291 286 290 284 285 288 292 296 290 291 294 295 298 300 301 303 304 306 307 308
306 306 306 307 307 307 305 299 300 301 299 291 294 306 302 309 307 304 303 298 299 297 295 291 290 288 295 290 291 290 293 295 292 292 295 297 299 300 302 304 304 306 307 308
306 306 306 306 306 306 304 302 302 303 299 291 294 300 305 306 305 304 302 300 296 294 293 293 291 296 293 295 292 290 294 292 289 289 295 295 296 302 304 302 302 305 306 306
306 306 305 306 305 306 300 299 304 305 306 295 289 300 300 306 306 304 302 302 298 295 295 295 296 299 294 289 288 294 295 298 297 294 299 299 301 302 303 301 303 305 307 309
306 306 306 306 306 303 298 299 304 307 307 296 291 293 303 306 305 304 302 303 300 299 299 295 295 295 298 290 287 295 296 297 298 300 299 297 301 298 302 303 304 305 308 310
305 305 306 305 305 304 301 306 308 307 304 300 290 290 295 306 299 297 303 298 300 299 296 297 295 295 294 287 293 295 299 298 298 300 301 301 302 303 304 304 304 303 305 307
305 305 305 304 302 303 304 308 308 306 302 293 293 288 288 304 298 299 298 300 292 300 296 296 294 291 286 292 294 295 295 295 298 300 302 303 303 303 304 304 305 305 306 308
304 304 302 299 301 308 308 303 299 298 298 298 291 296 292 298 298 295 294 297 293 290 295 298 292 291 297 299 299 299 299 299 299 296 297 300 301 302 303 303 305 306 307 308
303 299 298 301 308 302 301 295 293 294 291 295 295 295 292 303 295 292 295 291 293 288 292 293 290 289 294 298 300 301 301 302 301 299 300 302 301 302 303 303 305 305 306 306
298 297 300 301 298 296 292 292 295 294 292 297 296 298 300 299 300 293 293 290 292 287 297 292 287 294 298 298 300 300 301 301 301 301 301 303 302 303 303 303 302 303 304 306
302 296 293 292 293 287 287 286 291 293 299 300 300 296 299 299 298 293 291 287 286 296 289 288 292 298 298 299 301 301 301 300 303 303 303 305 304 304 303 302 303 303 303 304
295 293 286 288 287 291 292 293 296 301 301 299 298 297 297 297 294 294 287 291 291 285 283 285 294 298 301 302 302 300 300 301 301 304 303 304 304 303 303 302 302 301 300 301
293 295 287 290 295 298 299 301 300 302 302 299 297 297 297 294 293 294 291 286 284 284 283 291 296 299 301 300 301 301 300 300 300 302 300 301 303 303 303 303 302 301 300 301
295 294 292 296 295 296 299 300 300 304 302 302 299 295 292 292 292 289 287 285 280 286 292 298 300 300 302 301 302 302 301 301 300 303 302 302 303 302 303 304 304 301 300 300
293 292 297 296 295 295 297 299 301 303 301 295 297 292 291 294 290 288 289 286 288 296 298 300 302 300 303 302 302 304 302 302 301 302 303 303 303 302 302 299 300 302 300 300

GFSNW_sfc_thetae_036.txt.gz
Theta_e
307 307 307 307 307 305 299 293 289 301 303 288 285 281 289 294 292 295 293 292 289 287 288 286 286 286 289 295 294 288 289 285 281 284 290 293 290 287 286 279 279 283 285 285
307 307 306 307 307 305 299 292 291 301 299 286 281 287 291 293 291 291 291 290 291 291 287 283 288 289 295 295 293 290 291 282 277 278 284 292 289 292 292 289 285 282 281 285
307 307 306 306 306 305 300 292 286 291 291 289 285 285 288 288 295 293 292 290 291 288 287 288 286 288 293 295 295 298 294 285 281 275 281 288 286 289 291 289 283 284 285 288
308 307 306 307 306 305 297 291 286 289 281 285 287 288 290 288 288 292 292 289 289 288 285 285 284 289 290 293 295 294 289 282 285 285 287 288 288 288 289 288 289 285 289 289
307 307 307 306 306 305 296 288 288 291 288 289 286 288 288 289 290 290 289 287 290 290 287 288 285 287 287 286 290 289 289 283 287 284 288 289 287 290 291 290 290 290 290 290
307 308 308 307 306 303 291 293 296 293 290 286 286 286 289 290 292 293 293 291 289 288 291 294 293 294 293 291 287 287 289 287 285 281 288 288 283 289 290 291 293 292 287 293
307 308 308 307 306 304 296 292 297 292 286 288 288 290 292 291 291 289 292 291 288 293 297 295 293 291 292 292 291 292 285 284 287 283 285 277 289 297 298 296 298 298 303 304
307 308 308 308 307 305 295 294 296 293 287 290 290 291 290 292 293 289 291 293 294 296 291 288 286 288 289 291 294 290 291 288 283 282 283 287 292 292 293 293 296 303 302 306
307 307 307 308 308 306 300 295 295 295 291 288 293 289 291 289 290 291 292 294 295 293 288 285 281 280 285 285 289 295 293 291 286 285 281 280 287 291 297 300 293 303 301 303
306 307 307 307 307 308 303 297 295 296 291 294 293 290 290 294 293 290 290 292 290 290 282 278 279 281 288 282 284 285 287 287 284 283 283 286 291 293 299 290 292 300 303 303
305 306 307 307 307 308 304 297 298 294 291 293 295 296 292 293 290 287 291 288 286 286 283 284 284 282 284 285 288 287 286 285 284 284 284 280 295 296 292 295 299 301 302 306
305 306 306 306 307 307 306 297 298 299 294 294 299 300 301 300 299 293 294 289 290 288 287 286 287 285 286 286 281 291 285 288 285 285 285 292 297 297 300 302 300 302 303 306
305 305 305 306 307 307 306 300 300 296 291 292 293 294 300 303 302 303 293 288 290 289 294 286 289 286 289 284 283 288 291 295 290 290 292 295 298 300 302 303 302 303 304 306
304 304 305 306 306 307 306 300 300 295 295 290 291 301 298 304 302 302 299 294 294 295 295 290 289 287 293 287 289 289 288 291 289 291 294 295 298 300 302 302 304 303 304 306
304 305 306 307 306 306 305 301 301 298 294 290 291 298 300 300 302 302 299 295 295 294 291 291 290 295 294 293 289 289 292 292 289 287 293 293 295 299 302 301 302 303 303 304
303 304 305 305 306 306 300 295 301 301 299 294 289 294 296 299 302 301 299 297 297 295 294 294 296 300 293 287 285 291 294 297 298 295 298 298 299 301 302 302 303 304 304 307
303 304 304 305 305 303 295 294 300 305 304 296 289 288 297 300 300 301 296 298 296 297 297 294 292 292 292 286 285 292 295 298 298 300 298 297 299 298 302 304 305 305 308 308
304 304 305 305 305 303 298 300 304 304 301 297 288 287 291 299 294 293 299 295 297 295 293 293 292 291 290 284 290 293 296 296 297 299 301 301 302 304 304 304 305 305 305 307
303 304 305 301 298 298 303 309 307 305 300 292 291 282 281 301 297 297 293 293 287 297 292 292 293 287 282 289 291 294 295 293 295 299 301 302 302 302 303 302 303 303 304 305
304 302 298 298 300 308 307 301 298 297 297 297 292 291 287 294 294 294 290 290 288 286 291 295 289 286 293 295 296 296 297 297 297 294 296 298 298 301 301 300 301 303 303 303
295 292 294 298 304 300 298 294 290 291 290 292 290 291 287 296 291 291 291 287 288 282 288 292 288 285 293 296 298 300 299 298 298 299 301 299 300 298 298 299 301 301 302 302
295 296 299 297 294 293 291 289 292 292 289 291 290 291 292 295 296 288 289 285 288 283 294 290 286 291 295 296 300 299 299 299 299 300 301 302 302 301 299 299 299 299 301 301
300 296 293 291 291 285 286 281 288 291 294 295 295 293 296 294 295 290 286 282 281 289 281 283 287 294 296 296 299 299 301 300 301 301 302 303 304 302 299 298 299 299 299 300
293 291 285 286 283 287 287 287 289 296 298 298 294 295 292 293 290 292 285 288 287 280 276 280 290 295 298 300 300 299 299 300 301 303 302 300 300 300 300 298 299 298 298 300
290 291 284 286 290 292 293 295 295 298 300 297 293 292 292 289 290 291 287 284 278 277 276 284 293 297 299 299 298 298 299 298 300 301 300 300 300 300 299 299 298 298 298 297
291 290 287 289 289 290 292 293 296 301 300 300 294 289 288 288 287 285 285 280 279 280 284 292 296 298 299 298 298 298 299 298 298 300 301 301 300 299 298 299 298 298 297 296
290 288 291 290 290 290 292 293 294 300 298 294 296 289 287 289 284 282 285 283 284 288 291 296 299 299 301 300 300 300 300 298 299 300 301 300 300 298 298 296 297 297 297 296

GFSNW_sfc_thetae_042.txt.gz
Theta_e
307 307 307 307 307 304 301 289 286 298 297 285 280 278 285 292 291 294 292 290 289 285 285 284 284 284 288 294 292 286 289 284 281 284 289 290 286 283 283 279 278 279 277 279
307 306 306 306 307 305 299 291 291 298 294 277 277 284 287 290 290 290 290 289 289 289 286 282 286 287 293 293 291 288 290 283 278 279 285 288 283 286 284 283 283 280 277 279
308 307 307 307 307 305 297 290 283 287 287 285 282 284 285 287 292 291 291 289 291 288 286 289 286 287 291 292 292 297 293 286 280 275 280 284 282 285 286 284 279 279 282 284
309 308 308 307 307 304 293 287 282 287 278 281 284 287 287 286 285 292 291 288 288 288 285 285 284 288 289 291 294 290 290 283 282 284 286 286 285 284 285 283 284 281 284 285
308 308 308 307 307 303 291 281 284 286 283 285 284 284 286 286 288 288 287 287 289 288 285 285 284 287 287 287 289 288 289 282 285 282 285 286 284 286 286 286 286 285 286 286
308 308 308 307 307 300 292 292 288 287 285 282 280 280 286 287 288 290 291 291 288 287 289 292 292 292 290 290 288 285 284 284 280 278 284 284 279 284 286 287 288 287 283 288
309 308 307 307 307 303 298 295 293 288 281 282 283 286 286 286 288 287 291 291 289 293 294 292 292 289 289 290 289 291 286 284 282 278 282 273 286 294 293 289 289 291 291 292
309 308 307 307 307 307 299 298 294 290 284 284 285 287 287 287 291 290 290 291 293 291 288 284 282 286 288 289 290 290 289 286 282 279 278 283 286 290 290 289 288 294 295 297
306 306 307 307 307 307 303 299 298 293 287 283 289 285 286 283 285 289 289 292 292 289 283 282 279 276 284 284 287 293 292 288 284 282 277 276 286 290 294 294 285 298 298 298
305 305 305 306 306 307 304 300 299 295 287 289 289 287 286 288 288 286 290 289 287 286 281 280 279 281 286 281 281 283 286 286 281 281 279 284 289 290 292 286 285 298 298 300
303 303 304 306 305 306 303 301 300 296 291 292 294 292 288 288 288 286 289 288 286 284 282 282 282 282 285 284 286 285 284 283 282 283 281 278 291 289 287 293 299 299 299 299
303 303 303 304 305 305 305 298 301 301 294 292 297 297 298 296 294 291 292 289 290 289 287 285 285 279 285 285 281 289 281 286 284 284 283 291 293 291 295 296 298 299 300 301
302 302 302 303 303 305 305 300 301 297 292 292 289 289 294 296 296 298 289 287 292 291 295 290 289 284 288 283 285 287 288 292 288 288 291 292 295 296 299 301 299 302 302 302
301 301 303 303 304 304 304 300 301 298 293 286 287 296 294 300 296 295 296 293 294 295 295 290 288 286 292 288 289 288 290 292 290 289 293 294 295 297 299 301 302 302 306 307
301 301 302 302 303 304 303 301 302 301 293 287 288 293 296 297 297 297 297 296 295 294 291 290 289 293 293 293 290 287 291 291 289 287 294 293 294 298 301 301 302 303 305 307
301 301 301 301 302 303 299 293 299 302 299 290 286 291 294 295 296 298 296 296 296 295 293 293 293 296 294 290 283 287 290 295 296 294 298 298 299 302 304 303 304 305 304 306
300 301 302 302 302 300 295 293 299 302 300 290 288 286 294 298 297 297 296 298 296 296 295 294 288 292 295 289 281 287 290 294 295 299 299 297 300 299 302 303 305 305 305 306
302 303 304 303 304 302 298 301 303 303 297 296 288 285 287 296 293 291 296 294 296 294 295 295 291 290 287 284 287 289 291 294 296 298 299 299 300 300 299 301 302 301 301 303
303 304 304 300 298 296 298 306 307 303 297 291 289 283 279 292 294 298 297 297 292 297 294 290 293 288 282 286 287 289 291 291 293 296 298 298 297 297 297 298 299 298 299 301
300 296 298 296 298 303 304 302 297 295 295 296 291 291 284 289 288 288 291 291 288 286 290 296 291 286 290 291 291 292 293 295 295 293 293 295 294 294 295 296 297 297 297 299
289 286 290 294 301 297 296 292 291 289 287 289 290 291 290 292 285 285 291 288 286 285 285 291 288 285 289 293 294 295 296 296 296 296 299 299 296 294 294 296 297 297 296 297
290 290 294 296 292 289 289 287 291 288 285 290 289 289 289 289 291 291 290 286 285 283 290 287 284 287 293 294 295 295 297 297 297 297 298 298 296 295 295 295 295 297 297 297
294 294 291 290 289 283 283 280 286 287 292 296 296 293 293 290 291 289 283 282 282 285 279 281 284 289 293 294 296 297 297 298 297 297 298 298 297 296 295 294 295 296 297 297
287 288 282 284 281 283 282 283 286 293 296 295 297 295 294 292 288 286 283 285 282 276 276 279 285 290 294 296 296 297 296 297 297 299 298 297 296 295 295 294 294 294 293 295
284 287 280 282 285 286 289 293 293 295 297 297 296 295 294 291 289 288 284 283 277 276 277 280 287 292 295 295 296 296 296 297 297 298 297 296 296 295 294 294 293 294 293 293
286 285 284 287 287 285 287 289 289 292 294 295 295 291 289 288 287 284 283 278 273 278 280 287 289 293 294 295 297 296 298 298 297 298 298 297 296 294 293 293 293 292 293 292
284 283 287 286 284 285 285 286 287 289 288 288 292 287 287 291 285 282 281 279 281 285 287 289 292 294 295 296 297 298 298 297 296 298 297 295 295 294 293 291 292 291 292 292

GFSNW_sfc_thetae_045.txt.gz
Theta_e
309 308 307 306 307 305 303 297 294 304 303 295 289 288 288 292 292 295 292 292 290 288 288 286 286 285 289 295 294 288 292 288 283 285 291 293 291 288 289 284 282 285 284 285
309 309 308 307 307 305 300 293 294 303 300 288 287 289 289 291 291 291 291 289 291 292 288 284 288 288 293 294 293 290 292 286 280 282 288 291 288 289 290 289 289 285 282 285
309 309 308 308 307 306 301 295 290 294 294 292 288 285 286 287 292 292 293 291 292 289 288 290 287 288 292 294 294 297 295 287 284 279 283 287 285 287 289 289 284 285 286 288
310 309 308 308 307 305 297 291 289 290 287 287 287 288 287 285 286 292 292 290 290 288 284 285 285 289 290 293 295 294 292 284 287 287 288 288 287 287 288 286 288 284 287 288
310 310 309 307 307 304 295 290 289 292 288 288 288 288 287 287 288 288 287 287 289 290 286 287 284 287 288 288 292 290 293 285 287 284 287 287 285 287 288 288 288 288 289 288
309 309 309 307 307 304 296 294 293 291 288 287 286 287 287 287 288 290 292 290 289 288 290 293 293 294 293 291 289 288 288 286 284 280 286 286 282 287 288 289 291 290 286 291
308 307 308 307 307 304 299 297 294 288 285 286 287 287 288 287 289 287 291 293 290 295 298 296 296 293 292 291 290 291 287 286 285 281 283 274 287 296 294 292 294 296 294 295
305 305 306 306 306 307 301 299 295 290 285 288 288 288 288 289 290 289 290 294 297 298 293 289 288 289 290 290 290 289 289 286 283 279 279 283 287 290 290 288 289 297 296 297
305 305 305 305 306 307 305 301 300 294 287 288 290 287 288 286 287 289 292 296 299 295 291 288 282 282 285 285 288 294 293 288 284 284 279 277 287 291 293 291 285 298 300 298
303 303 302 304 305 306 305 303 301 296 288 291 291 287 287 290 289 286 290 292 293 294 288 283 281 282 288 283 283 284 286 287 282 282 281 285 290 292 292 283 288 295 299 300
303 303 302 303 304 305 305 301 303 296 291 293 295 295 291 290 289 284 291 290 292 291 287 285 285 283 286 285 288 287 285 284 284 285 282 280 295 291 285 290 293 294 300 302
301 301 302 302 303 302 304 298 304 302 294 293 300 300 300 298 296 291 292 291 291 292 289 289 288 285 287 286 282 292 285 288 285 284 286 294 295 292 296 296 296 298 299 302
300 301 301 302 303 304 303 301 303 299 293 293 294 293 299 300 299 300 289 294 296 293 297 291 289 286 289 284 287 288 292 295 289 289 292 293 295 297 297 298 300 301 302 303
300 300 301 301 301 303 304 300 304 299 294 287 292 300 297 302 300 299 299 297 297 297 296 291 290 288 292 289 290 289 293 294 290 290 293 295 296 297 299 300 302 303 306 308
300 300 300 301 301 301 302 301 301 302 294 288 290 297 300 301 300 297 297 295 293 295 293 290 289 294 292 294 293 291 296 293 289 289 295 294 295 300 302 301 301 303 303 306
300 301 302 302 302 302 300 294 300 302 300 291 286 297 297 300 301 297 295 294 294 295 294 293 295 299 294 290 289 295 296 297 298 294 299 300 300 302 302 302 302 303 303 304
301 302 303 303 303 301 295 293 299 303 301 291 288 290 297 299 301 300 297 298 297 297 296 294 294 296 296 293 289 294 297 298 299 301 300 296 298 297 300 301 303 304 303 303
303 303 303 303 304 302 297 301 303 302 296 295 288 290 293 300 298 295 300 296 297 297 296 298 295 296 293 291 296 296 298 299 300 300 300 299 299 298 299 300 301 299 299 300
301 301 303 303 301 296 299 305 307 302 297 290 290 288 287 297 300 301 299 299 292 298 294 296 296 292 290 295 295 296 298 298 298 300 300 299 297 297 297 298 298 297 297 298
299 297 297 296 300 302 303 300 296 294 295 294 290 294 289 295 295 294 296 294 292 289 294 298 293 292 299 299 298 300 300 301 301 299 298 297 296 295 295 297 298 298 298 298
293 288 290 295 299 300 298 292 291 291 289 293 293 293 290 297 291 292 296 292 292 288 292 292 289 290 297 300 299 301 302 303 302 302 302 300 299 296 295 296 297 298 298 298
293 292 295 295 293 292 290 288 291 288 287 293 292 292 293 296 297 294 292 291 291 285 293 292 286 294 299 299 300 302 303 303 303 303 301 301 300 298 297 296 296 297 297 298
295 292 290 290 290 283 282 281 287 288 293 296 295 293 293 294 295 293 291 288 288 292 289 288 293 298 299 300 302 302 304 304 303 303 302 301 300 299 297 296 296 296 296 298
286 287 282 284 282 285 287 288 290 296 297 295 295 293 290 295 291 293 288 291 291 286 284 287 296 298 300 301 302 303 303 303 303 303 302 300 299 298 297 296 296 294 293 295
283 286 280 284 289 290 291 293 294 296 298 296 295 296 296 291 288 292 290 287 285 287 288 293 297 299 301 301 301 303 303 304 303 304 302 300 299 297 296 296 295 294 293 293
284 283 282 287 287 289 291 292 291 296 297 295 296 292 290 289 289 287 288 287 285 290 292 296 298 300 301 302 303 303 304 304 304 304 302 301 299 297 296 296 295 293 292 292
284 284 288 288 287 287 289 291 292 295 292 290 295 288 287 291 287 287 290 288 293 295 296 297 298 301 302 303 303 303 305 304 305 304 302 300 300 298 297 295 295 293 292 292

GFSNW_sfc_thetae_048.txt.gz
Theta_e
310 310 309 309 307 306 305 305 297 308 309 298 299 292 291 293 294 297 294 295 293 290 291 289 289 288 291 296 296 291 294 291 286 288 292 295 293 290 291 284 284 287 287 290
310 309 309 309 307 306 301 298 299 309 306 293 291 293 292 293 293 293 292 291 294 294 291 286 290 291 295 296 294 292 295 289 283 286 290 293 290 291 293 293 291 287 285 289
310 310 309 309 307 306 302 297 294 301 301 299 291 289 291 290 295 294 295 293 294 293 291 293 288 290 293 296 295 297 296 290 286 282 286 290 287 290 291 291 287 287 288 292
310 310 309 308 307 306 302 298 295 296 293 297 293 293 291 289 289 294 295 292 292 289 287 289 288 291 292 295 297 297 294 287 290 290 291 291 290 289 291 290 291 287 290 291
310 309 309 308 307 306 302 296 294 297 294 295 293 291 290 289 290 291 290 289 290 290 287 288 286 289 291 289 295 294 295 287 289 287 291 290 288 290 291 291 291 291 291 291
307 307 306 308 307 306 300 301 295 292 292 292 291 293 290 290 292 293 294 293 290 290 293 297 297 297 296 294 291 290 291 289 286 283 288 288 285 289 291 292 293 292 289 294
306 306 306 306 306 306 302 299 298 290 287 290 289 290 291 289 292 290 294 295 292 296 302 301 301 300 298 296 294 294 288 288 287 283 285 277 288 295 295 294 295 297 297 299
304 305 305 305 306 305 303 306 296 291 285 290 291 291 289 291 293 293 295 296 299 302 299 294 293 293 293 294 296 294 291 286 284 283 283 287 290 292 290 288 289 297 297 300
303 303 304 304 304 306 307 306 306 295 289 292 293 290 292 288 288 292 295 300 303 300 295 293 287 286 287 288 290 296 294 289 285 286 281 279 289 293 296 293 284 295 297 301
303 303 303 303 303 304 305 303 308 300 289 292 295 290 289 291 291 288 291 293 296 300 292 288 285 286 291 286 285 286 289 289 283 285 283 287 293 296 294 283 288 294 296 298
301 302 302 302 303 303 302 302 308 300 293 294 296 297 293 293 291 286 292 292 296 295 291 290 289 287 289 287 290 289 287 286 285 287 284 282 296 293 286 294 294 295 296 299
300 301 301 302 302 303 303 298 306 308 297 294 302 302 302 299 298 293 292 292 293 294 291 292 293 288 290 288 285 295 288 290 287 286 287 296 297 294 295 296 295 296 298 304
300 300 301 301 302 302 303 302 305 303 295 295 298 299 305 306 304 304 291 294 298 298 298 292 291 286 292 288 290 291 294 296 291 290 295 295 297 298 299 299 298 300 302 303
300 300 301 301 301 301 301 300 304 302 296 288 296 305 303 307 306 304 303 303 304 303 298 292 291 289 296 291 295 292 295 296 294 291 295 297 297 298 300 300 301 300 304 306
300 301 302 302 302 302 302 300 301 302 295 290 293 300 305 306 306 303 303 301 299 296 293 292 289 293 294 295 295 295 298 295 291 290 295 296 296 299 299 298 299 300 302 305
300 302 302 302 303 303 301 294 302 303 301 291 287 302 301 304 305 304 302 300 297 294 294 294 296 300 296 290 292 297 299 301 302 296 301 299 300 299 299 298 300 302 302 303
300 302 303 303 303 303 295 297 300 304 302 292 288 292 303 303 304 300 299 300 298 296 294 293 296 298 297 293 292 298 299 301 302 303 301 298 299 296 298 298 301 302 301 304
302 302 302 302 303 302 298 303 304 303 297 295 288 291 298 304 300 298 301 296 296 297 296 298 299 300 299 291 299 299 300 301 301 302 302 301 301 298 297 299 299 298 299 301
301 301 300 304 301 296 301 305 306 302 297 290 290 288 291 302 302 305 301 300 292 299 293 295 301 297 293 298 298 299 300 300 300 302 302 301 299 297 296 297 297 296 297 299
300 300 300 298 299 301 303 300 296 294 294 293 290 296 291 299 298 299 299 298 293 291 297 302 296 295 301 303 302 304 302 303 303 300 298 299 298 296 296 296 297 297 298 298
296 291 292 298 301 301 298 293 292 291 288 292 293 294 291 300 293 294 300 295 296 290 295 295 292 293 301 303 303 304 304 304 304 304 303 302 300 297 296 296 297 297 298 297
295 295 297 296 295 294 290 289 293 292 290 296 295 297 295 297 302 297 298 291 296 288 300 294 291 298 302 302 302 304 304 304 304 304 303 302 301 298 297 298 296 297 298 299
298 292 289 290 291 284 283 283 286 289 296 297 296 293 294 295 298 296 294 291 292 300 293 292 297 302 304 303 304 304 306 305 305 304 304 303 301 300 298 297 296 297 297 299
290 287 283 285 285 286 290 290 291 296 298 295 296 295 292 295 293 294 291 295 296 290 288 290 298 301 304 304 305 304 304 304 304 304 303 301 300 299 299 298 297 295 295 297
286 287 281 286 292 293 293 294 295 297 298 297 295 296 293 287 287 292 294 291 288 291 292 298 301 305 305 304 304 304 304 305 305 305 303 301 300 300 299 298 297 295 294 294
288 286 284 288 288 289 289 290 291 296 295 295 295 292 290 289 291 289 290 289 288 294 300 301 304 306 305 305 306 306 305 305 306 306 304 302 301 300 300 299 298 295 294 292
285 287 291 289 289 289 291 291 292 295 293 290 294 289 287 290 287 287 295 292 299 301 302 304 305 307 306 307 306 306 306 306 307 306 305 302 302 303 301 298 297 296 294 293

GFSNW_sfc_thetae_051.txt.gz
Theta_e
310 310 310 310 309 306 306 307 300 311 309 300 301 295 294 294 296 299 297 297 295 292 293 291 292 290 293 298 298 292 296 292 287 289 295 297 296 294 292 285 284 288 287 286
310 310 310 310 308 306 305 302 302 311 309 295 296 297 295 296 296 297 295 294 296 296 292 289 293 294 297 298 296 293 296 291 284 287 290 294 291 294 294 293 292 287 283 287
310 309 309 309 308 306 306 302 297 303 306 303 295 295 294 293 297 296 297 296 297 295 292 295 292 292 296 298 297 299 297 292 286 284 286 288 287 292 293 291 284 288 287 290
310 308 308 308 308 306 307 304 300 300 295 296 297 298 297 292 292 297 298 295 294 293 289 291 291 293 295 297 299 297 295 289 291 292 291 291 291 291 291 291 292 288 290 290
308 308 307 307 307 305 304 298 297 299 296 298 296 295 294 292 293 294 293 294 295 295 289 290 289 292 293 292 298 296 298 288 291 288 292 292 289 292 292 292 292 291 292 291
306 306 307 307 306 305 300 300 301 297 294 296 295 295 295 294 295 295 296 295 295 294 295 297 297 299 299 297 294 294 291 291 289 284 289 289 285 290 292 293 294 293 289 295
304 304 305 305 305 305 303 302 303 293 292 294 294 294 295 293 293 292 297 298 297 300 303 303 303 302 301 300 298 298 290 289 289 286 287 279 291 297 295 294 295 297 298 300
303 303 304 305 305 306 304 306 302 295 289 293 294 295 294 295 297 295 296 298 302 304 301 295 294 295 292 297 299 297 297 289 286 285 284 288 291 292 292 291 291 298 298 300
303 303 303 303 304 305 305 305 308 301 290 295 296 294 295 291 291 295 297 302 305 304 297 294 289 287 290 290 292 300 296 292 287 287 281 279 289 295 297 296 286 295 296 298
302 302 302 303 303 303 304 303 310 301 293 298 297 292 291 294 293 290 296 296 298 302 294 291 288 289 293 288 288 289 291 291 285 285 284 288 293 296 296 285 289 296 297 298
301 301 302 302 302 303 303 302 306 301 295 298 300 301 295 294 294 289 295 294 296 296 291 291 291 290 292 291 292 291 289 287 287 288 285 282 298 294 287 294 296 296 297 299
300 301 301 301 301 302 303 299 305 310 299 298 304 303 303 300 299 296 295 294 293 296 294 293 294 291 294 292 286 297 289 293 289 289 290 299 300 297 298 299 297 297 298 300
300 300 301 301 302 302 302 299 302 302 297 298 300 300 307 309 307 306 292 295 299 299 302 295 291 289 296 289 292 293 297 300 294 293 296 297 299 299 301 300 299 300 300 299
300 300 301 302 303 303 302 300 302 303 298 292 298 307 304 307 307 306 306 304 305 305 302 294 291 289 298 293 295 295 298 299 295 295 298 297 297 299 299 299 298 299 300 300
300 301 301 302 303 303 303 302 304 304 296 292 294 301 307 308 308 305 304 303 301 297 294 292 290 295 295 296 298 296 300 296 294 292 299 297 297 299 299 296 296 297 298 300
300 301 301 302 303 303 300 295 305 304 303 292 287 304 303 306 306 304 302 301 299 297 293 293 297 301 297 291 291 300 301 302 302 299 302 301 300 300 299 295 296 298 300 301
301 302 302 302 302 302 297 298 300 303 303 292 289 293 302 307 306 305 302 303 299 297 294 292 295 299 298 295 292 300 301 302 302 303 302 299 299 296 298 297 296 299 300 302
302 302 302 302 302 302 299 304 304 305 298 295 289 292 298 307 302 297 302 297 296 296 295 297 297 299 298 293 300 302 301 302 302 301 303 301 301 300 298 297 296 297 298 300
301 302 302 303 302 297 301 306 306 303 297 290 290 290 293 304 301 306 302 302 292 299 293 295 298 297 294 299 301 300 302 302 301 302 301 301 299 296 296 294 295 295 297 298
301 302 301 300 303 300 303 301 298 294 294 292 289 297 292 299 298 298 301 301 296 291 297 302 298 297 303 304 303 304 303 304 304 299 298 298 297 296 296 295 296 297 297 298
300 296 295 300 302 300 299 294 293 291 288 292 294 296 292 299 294 294 300 297 297 291 298 296 295 297 301 304 304 304 305 305 305 303 302 301 298 297 296 295 295 296 298 297
295 295 298 298 295 293 290 289 293 292 290 296 295 296 298 298 301 297 299 295 297 290 302 295 293 297 303 303 302 304 304 305 305 303 301 300 299 298 297 297 296 295 297 298
300 295 290 290 292 284 285 284 289 290 298 300 301 298 295 296 298 297 298 291 293 301 295 294 297 301 303 303 304 304 305 305 305 303 301 300 300 299 297 297 297 296 297 297
293 289 285 288 287 289 292 291 292 296 296 295 297 295 293 295 293 296 291 297 300 292 289 291 299 302 303 304 305 305 304 305 304 303 302 300 300 300 298 298 298 296 295 296
289 289 282 287 292 293 293 296 296 298 298 298 296 297 294 288 286 288 293 291 289 292 293 300 302 305 305 304 306 305 304 304 305 304 302 301 301 300 298 298 298 295 295 295
290 288 286 290 289 289 290 291 294 298 295 296 297 293 291 289 288 287 290 289 288 296 302 302 305 305 307 307 306 306 305 306 306 305 303 302 302 301 300 298 297 295 293 292
287 288 292 291 290 289 290 292 292 296 295 290 293 288 290 289 286 287 295 292 296 301 305 307 308 308 308 307 305 307 306 306 307 306 304 303 304 304 302 299 299 298 294 293

GFSNW_sfc_thetae_057.txt.gz
Theta_e
310 308 307 308 307 305 304 302 295 308 307 293 297 293 295 298 297 299 296 296 293 290 292 289 289 289 293 298 297 290 292 287 282 285 292 294 291 289 288 282 279 285 283 281
309 307 307 307 306 305 300 299 300 309 306 290 290 295 296 297 296 296 294 293 294 294 290 287 292 292 298 298 295 293 291 284 279 282 286 291 287 290 289 288 285 282 280 282
308 306 306 306 305 305 302 300 295 300 301 299 292 291 292 293 300 297 297 295 295 293 291 292 290 291 295 297 296 301 297 287 283 279 283 287 285 288 290 288 282 283 285 286
307 306 306 306 305 305 302 300 296 296 290 292 292 293 294 293 293 297 296 293 293 290 287 289 287 291 293 296 300 295 294 285 289 289 291 291 289 289 289 287 288 284 287 288
305 305 305 306 305 304 303 294 292 294 291 295 293 294 293 292 293 293 292 290 293 292 287 289 288 291 290 289 293 290 293 287 289 287 290 290 288 290 291 290 291 290 290 290
304 304 305 305 305 304 299 300 300 295 292 292 290 289 290 291 294 295 296 293 291 290 292 295 295 295 295 293 291 291 291 287 283 281 288 288 282 289 291 291 292 291 287 291
303 303 303 304 304 304 300 301 300 293 287 290 290 291 293 292 292 289 294 295 292 296 300 299 297 296 296 295 295 295 290 288 286 281 283 273 289 294 294 291 292 293 292 293
303 303 302 303 303 304 298 299 299 295 287 291 291 292 291 293 294 292 292 295 297 299 295 290 288 288 290 294 296 296 294 290 285 281 277 284 288 291 289 288 287 294 293 294
302 302 302 302 302 303 299 298 301 298 291 288 294 290 293 289 288 290 292 295 299 296 292 289 283 280 287 287 292 297 297 292 286 285 279 272 288 293 296 295 283 294 294 294
302 302 302 302 301 301 298 297 300 297 291 293 294 289 289 291 290 289 291 292 291 296 290 286 283 285 292 284 284 287 287 287 283 283 281 284 292 294 298 281 283 292 295 295
301 301 301 301 301 301 299 296 299 296 292 293 296 296 292 292 292 289 291 289 291 289 287 287 288 286 289 286 290 287 284 285 283 283 280 275 296 295 286 291 294 296 297 296
301 301 301 301 301 302 302 294 300 301 294 293 298 298 298 296 295 293 294 291 291 292 288 289 289 285 287 287 280 292 282 289 287 287 286 296 298 295 297 297 295 297 294 295
301 301 301 301 302 302 302 298 299 297 293 293 293 293 299 303 301 301 292 293 296 293 298 293 291 286 288 281 284 287 292 295 289 289 295 296 298 298 298 298 296 296 297 294
300 301 301 302 301 302 302 297 299 297 293 287 290 300 296 300 300 301 302 300 300 299 298 293 290 288 292 286 290 288 291 295 292 291 295 296 297 297 297 297 298 298 297 296
300 301 301 302 302 303 301 298 299 299 292 287 289 295 298 300 300 301 304 300 298 293 293 291 289 293 291 291 292 289 295 292 290 287 296 295 295 298 299 297 296 296 295 294
300 301 301 302 303 302 297 292 301 303 301 292 285 295 295 298 300 301 301 300 298 298 294 292 293 295 292 288 286 293 298 300 302 296 301 299 299 300 300 297 296 296 295 296
300 301 301 302 302 299 292 293 298 302 302 292 287 288 297 301 302 301 298 301 298 296 295 292 292 292 294 290 286 293 297 301 303 303 298 296 298 295 298 297 297 296 296 297
300 300 300 301 302 301 296 300 303 303 298 295 286 287 291 303 297 295 303 298 297 296 294 294 292 294 294 289 293 297 301 302 302 300 298 296 297 297 296 298 295 293 294 296
301 301 302 300 299 296 300 306 307 304 298 289 288 285 283 299 298 299 299 299 290 296 291 292 293 292 288 293 296 300 298 299 298 298 297 296 295 295 295 294 293 292 294 295
301 299 298 295 300 306 305 300 296 293 294 292 286 291 287 292 291 292 295 296 292 289 291 297 290 290 298 299 300 302 302 300 298 293 293 294 293 294 294 294 293 293 295 295
297 291 290 295 303 297 294 292 290 290 286 290 289 291 289 297 289 289 294 292 294 288 292 292 290 291 298 303 301 304 302 301 298 297 296 296 295 295 295 294 294 295 294 293
293 292 295 297 295 292 288 289 293 290 289 293 291 292 292 296 300 293 294 292 293 288 298 293 289 295 301 302 303 303 303 300 297 298 297 297 297 297 296 295 295 294 295 294
297 292 291 291 290 283 284 283 287 288 294 295 295 292 293 296 296 293 292 290 288 297 290 289 290 297 302 302 302 304 305 301 299 298 299 298 297 298 296 294 295 295 293 294
292 290 280 285 286 289 290 290 290 292 294 292 294 293 292 295 291 290 287 293 294 288 285 288 292 298 301 304 304 304 301 301 299 299 299 297 296 296 296 295 294 294 292 292
289 290 281 287 291 291 291 291 290 292 293 292 291 291 295 291 287 290 288 287 286 287 286 291 294 297 304 304 304 303 304 301 299 299 298 298 297 296 296 295 294 294 292 291
290 289 286 289 289 288 289 290 289 294 292 293 293 290 289 288 287 286 285 285 282 285 289 294 296 301 303 303 304 304 305 303 300 300 300 300 299 298 296 295 294 293 292 291
288 288 291 290 291 289 290 292 292 295 292 289 291 286 285 289 285 284 285 283 285 288 292 297 298 301 303 304 304 304 306 304 302 301 301 301 301 300 298 295 294 293 292 292

GFSNW_sfc_thetae_060.txt.gz
Theta_e
309 307 306 306 306 305 301 295 292 305 302 291 291 288 292 296 296 298 295 294 292 289 289 287 287 288 291 297 295 289 290 285 280 284 291 293 289 287 286 277 277 283 282 280
308 306 306 306 306 305 299 293 295 304 302 285 285 291 293 296 295 295 293 291 293 292 288 285 290 291 296 296 294 290 290 283 279 281 284 289 288 288 288 288 286 281 279 280
306 305 305 305 305 304 297 294 289 293 295 292 287 287 289 292 299 296 295 293 293 290 287 290 289 290 295 296 295 301 296 285 283 278 282 285 284 287 289 287 281 282 282 284
305 305 305 305 304 304 298 293 289 290 284 287 288 288 290 290 290 294 293 291 291 288 283 286 287 289 292 294 297 294 290 285 286 288 289 290 289 288 289 287 287 283 285 286
304 304 305 305 304 304 295 288 288 289 287 289 288 289 287 288 291 290 289 288 291 289 284 286 285 289 288 288 292 289 289 283 287 285 290 289 286 288 291 290 291 289 288 287
303 303 303 304 304 301 292 294 294 290 287 287 285 284 288 289 291 292 293 290 288 287 289 293 293 293 293 292 289 288 286 284 282 281 287 287 282 288 289 290 292 290 285 289
303 303 303 302 303 301 292 294 293 287 282 287 287 290 289 289 290 288 292 291 287 293 297 296 294 293 294 293 292 292 286 286 286 283 282 274 287 293 293 290 291 292 292 293
303 302 302 302 302 302 292 293 290 290 282 287 288 289 288 289 290 289 290 292 292 293 291 287 284 288 288 293 295 292 292 287 285 281 280 284 288 291 289 288 287 294 292 293
302 302 302 302 302 302 292 293 293 291 289 285 292 288 288 284 283 286 290 294 294 291 289 286 280 280 286 286 290 297 294 292 286 284 278 270 283 292 295 295 283 293 293 292
302 302 302 302 301 302 296 292 293 290 285 290 289 285 285 287 284 282 288 289 288 291 287 285 282 283 290 285 285 285 287 286 283 282 280 284 291 294 297 282 283 292 293 293
302 302 302 302 302 301 298 292 294 290 289 290 292 292 288 288 286 283 287 288 287 285 286 287 287 284 287 285 288 286 283 279 282 284 281 277 295 294 288 291 293 292 294 297
301 301 301 302 302 301 301 292 295 296 290 289 294 294 295 293 292 289 289 290 290 291 287 288 286 282 284 285 279 290 281 285 285 286 281 291 295 294 296 294 293 295 296 295
301 301 301 302 302 302 300 294 294 291 291 289 288 288 294 296 296 296 287 287 292 291 294 287 289 285 285 280 282 286 289 291 286 289 292 294 296 297 297 297 295 296 295 293
301 301 301 301 302 302 302 294 294 292 291 284 286 296 293 297 297 295 297 296 296 297 296 291 289 287 289 286 289 286 289 290 290 289 294 294 296 297 297 297 297 296 296 294
301 301 301 301 302 303 300 296 295 296 291 285 286 292 294 295 294 294 297 296 296 295 292 291 288 292 289 287 287 285 291 289 288 289 294 293 293 297 298 296 297 297 295 295
301 301 301 301 301 302 293 287 299 299 298 289 284 289 291 295 296 295 297 297 296 296 294 292 292 292 291 286 283 291 293 297 299 295 299 298 299 299 299 298 296 296 296 295
300 300 300 301 300 296 290 287 295 301 296 290 284 285 291 295 298 298 296 297 296 296 295 292 292 292 292 289 285 291 293 296 298 302 301 297 297 294 297 296 297 296 295 296
300 300 300 301 301 299 294 296 300 300 294 293 284 282 286 295 293 294 302 296 297 296 294 294 291 293 292 287 291 293 298 301 301 301 297 295 296 295 295 297 295 293 293 295
300 301 302 298 294 293 295 307 304 302 296 288 288 284 280 292 290 292 298 297 290 296 291 291 292 290 286 290 292 299 300 298 298 297 296 295 294 294 294 295 293 291 293 293
301 298 295 293 299 307 304 299 294 293 293 292 287 290 286 289 288 286 287 294 291 287 290 295 289 289 294 297 297 301 301 301 296 291 292 292 292 293 294 293 293 293 293 293
292 287 287 290 298 293 289 287 289 289 286 289 288 289 288 293 288 288 288 285 291 288 290 291 290 289 294 301 303 302 303 298 295 295 295 294 294 294 294 293 294 293 293 292
292 291 293 291 291 288 285 284 291 288 287 291 288 289 291 291 298 293 290 288 293 286 294 291 287 291 299 300 302 303 301 296 295 296 295 295 296 296 295 294 293 293 293 293
295 290 288 287 287 278 283 282 284 284 289 291 290 287 288 292 294 289 290 286 286 294 289 288 290 293 296 297 301 302 301 298 297 296 296 296 295 296 295 293 294 294 292 292
289 288 277 283 283 285 286 284 284 287 288 285 286 286 286 291 290 290 286 289 290 287 284 285 290 290 293 297 302 301 299 296 297 298 297 296 295 295 295 294 293 293 291 292
288 287 276 283 287 286 286 286 284 286 287 285 284 285 287 287 286 288 288 286 281 284 283 286 289 291 297 302 303 302 300 296 296 297 297 296 296 294 293 294 293 293 292 291
288 287 283 285 284 283 283 284 284 287 287 288 288 287 286 285 286 284 282 281 280 283 286 288 290 293 297 301 301 303 304 300 296 297 298 298 297 294 293 293 293 292 292 290
288 284 287 284 284 283 284 286 287 289 286 283 286 285 285 288 283 280 284 281 284 286 288 290 293 292 295 300 303 304 305 304 299 299 298 297 297 296 294 291 292 292 291 291

GFSNW_sfc_thetae_063.txt.gz
Theta_e
307 306 306 306 305 304 302 294 290 303 301 291 287 286 291 296 295 297 294 292 291 288 288 286 286 286 290 296 294 288 289 284 280 283 290 291 287 284 284 276 275 280 281 280
307 305 305 305 305 304 299 293 293 302 299 284 283 288 291 294 294 294 292 290 291 290 286 282 288 290 295 294 293 290 289 282 279 280 283 287 285 287 287 286 283 281 278 279
306 305 305 305 304 303 298 292 288 291 292 290 286 286 288 290 296 294 294 292 291 288 286 287 286 289 294 295 293 300 295 284 283 279 281 282 283 287 289 288 282 281 282 283
305 304 305 304 303 303 296 290 286 288 282 285 285 287 288 288 288 292 292 289 289 287 282 284 284 288 289 293 295 292 291 282 284 286 288 288 287 287 288 286 287 283 285 285
304 303 303 304 303 303 294 288 286 288 285 287 287 287 286 287 289 289 287 285 289 287 283 285 283 285 286 286 290 287 287 282 285 284 288 288 286 288 288 288 289 289 289 287
304 303 303 303 304 299 291 293 292 288 285 285 283 283 287 287 289 290 291 289 286 285 288 291 291 291 291 291 288 285 285 283 280 279 286 285 281 286 288 290 291 289 285 289
304 303 303 302 303 299 291 292 291 287 283 284 285 288 289 287 288 286 290 290 286 290 293 292 291 290 290 291 291 291 284 284 285 281 285 273 286 292 292 289 290 291 291 292
303 303 302 302 302 302 292 292 290 289 285 286 287 288 287 287 288 286 288 289 291 291 289 284 283 284 285 291 293 291 290 286 284 282 277 282 287 290 288 286 286 292 290 293
303 302 302 302 301 302 292 290 292 289 286 283 290 287 287 283 281 283 287 291 293 289 286 286 282 279 285 285 289 296 293 291 285 284 279 271 281 291 294 293 283 293 293 292
303 302 302 302 302 302 295 291 292 289 287 288 288 284 284 286 282 280 284 289 287 293 287 284 279 281 289 284 284 285 285 287 283 282 280 281 290 293 295 282 283 291 292 292
303 302 302 302 302 301 298 292 292 291 288 289 290 290 286 285 284 283 284 283 285 283 280 285 286 284 287 282 286 284 281 281 282 282 280 275 293 293 288 291 293 292 293 293
302 302 302 301 302 301 301 290 294 294 291 289 292 293 293 292 290 286 284 283 285 288 281 283 284 278 281 282 278 288 279 284 280 283 280 288 293 292 297 299 296 295 293 295
302 302 302 301 302 302 301 293 293 294 289 288 284 286 292 295 294 295 284 284 289 287 294 290 283 281 288 283 281 283 288 289 284 285 288 291 294 296 297 299 297 297 295 294
302 302 301 301 302 302 302 296 294 295 290 283 284 294 291 296 294 292 293 291 292 295 296 291 288 285 290 286 285 285 288 288 285 285 290 293 295 297 298 297 298 297 296 295
302 301 301 301 301 301 299 295 294 297 287 283 285 291 292 295 295 292 291 291 289 294 292 289 287 290 290 289 285 284 289 286 284 286 294 294 294 298 298 297 296 297 295 294
302 301 301 301 301 301 292 287 296 297 296 288 282 288 290 294 296 294 292 293 289 291 292 292 293 295 291 287 283 288 291 293 295 292 297 298 299 300 298 295 294 296 296 295
301 300 300 300 301 297 290 286 296 300 294 287 285 281 289 292 295 296 297 295 294 294 294 292 293 293 293 288 284 291 293 296 298 300 299 296 296 293 295 294 296 297 295 295
300 300 301 301 301 299 294 295 300 300 292 292 283 281 285 292 288 288 296 296 296 296 294 294 292 293 292 286 290 292 296 299 300 298 297 294 294 294 294 296 296 292 291 293
300 300 301 298 295 291 293 304 303 299 294 288 287 284 279 291 288 288 293 297 290 296 291 291 292 290 286 291 293 295 298 298 299 297 295 293 293 293 295 295 292 291 291 292
300 298 294 293 297 301 303 298 294 292 293 292 286 289 284 289 289 287 286 293 290 286 290 294 289 289 296 297 299 301 302 301 296 291 290 292 292 293 294 292 292 291 292 292
290 286 288 291 297 292 288 286 289 289 286 288 288 288 286 292 288 288 289 283 289 287 290 290 288 287 292 295 296 299 300 296 296 294 294 293 293 294 294 293 292 292 292 291
290 290 293 292 290 287 283 283 290 287 285 290 287 286 289 291 292 291 292 288 291 284 294 290 285 290 292 292 293 295 301 298 295 296 295 295 294 295 294 294 292 292 292 292
295 291 289 287 285 278 281 281 282 282 287 288 287 283 286 287 293 289 290 287 284 292 288 285 288 290 290 290 294 298 303 296 296 295 296 296 295 296 295 293 293 291 291 292
290 288 279 282 282 283 284 283 283 285 287 286 283 283 284 285 286 290 285 289 289 283 280 281 287 288 287 290 296 302 301 296 297 296 296 295 294 294 294 294 293 292 290 291
288 287 277 282 286 285 285 286 284 286 286 284 283 282 284 287 286 288 286 284 280 281 280 284 288 288 289 292 296 300 302 301 295 297 296 295 294 294 293 293 293 292 291 290
288 287 283 284 283 283 283 283 285 287 286 286 287 286 285 284 285 278 280 276 273 279 285 288 289 290 290 292 295 299 303 302 300 297 297 296 294 294 293 293 293 292 291 290
287 284 286 284 283 283 283 285 287 288 284 282 284 282 280 287 278 276 281 280 283 285 287 289 290 290 290 292 295 301 303 302 300 297 297 296 295 295 293 291 292 293 292 292

GFSNW_sfc_thetae_069.txt.gz
Theta_e
308 307 306 306 305 303 303 303 298 307 306 298 292 292 292 295 295 298 296 294 293 291 291 289 289 289 292 297 297 292 295 291 285 288 294 294 292 290 290 284 281 285 284 283
307 306 306 306 305 303 301 298 299 307 306 293 291 292 292 293 293 295 294 292 293 293 291 288 290 291 296 296 296 294 295 289 283 284 288 291 288 290 291 290 289 283 281 284
307 306 305 305 304 303 301 297 293 296 297 294 290 288 288 290 296 294 294 293 294 291 290 292 289 290 294 295 296 298 298 291 287 282 285 288 286 288 290 290 284 285 285 287
306 305 305 305 304 303 299 294 291 292 288 289 290 289 289 288 288 293 293 291 290 288 286 287 288 291 291 293 295 295 294 286 289 289 290 290 289 288 289 288 289 284 287 288
306 305 304 304 304 302 297 293 291 292 291 290 289 289 288 288 289 289 288 288 289 289 286 288 286 288 289 288 292 293 295 286 289 286 289 289 287 289 290 290 290 289 290 289
306 305 304 303 303 300 296 296 296 294 288 288 288 287 288 289 289 289 292 290 288 287 289 292 293 293 293 292 290 289 290 287 286 282 287 287 283 287 289 290 292 291 288 293
306 304 303 303 303 299 296 294 294 292 285 287 287 287 288 287 288 287 290 292 289 291 295 295 294 293 292 292 291 292 287 286 287 282 284 276 287 294 294 292 293 295 294 296
306 304 303 303 303 301 297 295 294 292 286 288 286 288 289 290 290 288 289 291 293 295 292 288 287 288 289 289 289 289 290 287 283 280 280 285 288 292 292 291 291 296 295 296
307 305 303 302 302 301 297 295 296 293 288 286 289 287 288 285 286 287 288 293 296 294 291 288 282 281 284 286 289 292 291 289 285 284 279 278 288 292 297 296 287 297 297 297
308 305 303 302 301 302 299 296 296 293 287 290 291 287 285 290 287 284 287 289 289 293 289 286 284 283 289 283 284 285 286 285 282 284 282 287 292 295 298 284 288 297 298 298
307 306 304 302 301 302 299 296 296 294 288 289 291 291 289 288 288 283 287 287 289 289 286 285 285 284 287 284 287 287 286 285 284 285 282 280 297 296 289 295 298 298 299 299
307 306 304 303 301 301 301 295 297 297 291 289 295 294 295 293 292 289 289 288 287 290 288 289 288 286 287 284 282 292 286 289 286 287 289 297 299 297 299 299 297 298 298 299
307 306 305 303 302 301 301 298 297 294 291 289 289 290 294 296 296 296 287 290 292 291 296 291 288 283 287 282 286 287 290 293 289 289 292 294 296 298 299 300 300 301 301 301
307 306 304 303 302 302 302 299 299 297 291 284 289 296 294 298 296 295 295 294 295 295 296 291 288 286 291 286 289 287 291 292 290 290 293 294 295 297 300 301 301 300 299 298
306 307 304 303 302 301 301 299 299 299 291 285 288 294 295 297 297 295 295 293 292 291 289 290 288 291 290 290 290 288 293 291 288 287 293 292 294 300 302 298 296 296 296 296
306 307 304 302 301 300 297 290 296 298 297 288 284 293 293 295 295 295 294 293 292 291 290 290 294 297 292 287 286 292 295 295 295 292 297 297 300 302 300 296 296 297 296 295
306 305 302 301 301 299 292 289 296 298 298 289 285 287 293 294 295 298 292 292 291 291 291 291 293 293 293 288 286 292 292 293 295 300 301 297 297 295 298 297 298 296 295 294
304 301 300 300 301 300 295 299 301 300 294 291 285 286 289 295 293 293 299 291 293 292 292 294 293 293 292 287 291 291 291 294 297 299 300 300 298 297 297 298 295 293 292 292
300 298 300 300 297 293 295 301 302 300 294 288 288 284 284 294 294 295 294 297 290 297 292 292 293 290 287 289 288 288 291 292 294 298 300 298 295 294 296 296 293 290 290 291
297 297 294 292 295 301 304 298 293 291 293 292 286 290 286 291 292 291 292 293 291 288 293 294 288 288 292 291 291 291 292 295 298 299 296 295 294 294 295 293 292 291 291 291
293 291 290 292 298 296 293 288 289 289 286 289 289 289 287 294 287 287 292 289 291 287 288 288 287 287 289 291 290 292 294 297 300 303 299 297 296 295 294 292 291 290 290 290
291 291 294 295 292 288 284 284 288 287 285 290 288 290 291 292 294 289 292 288 291 285 293 288 284 289 289 289 289 291 294 296 300 302 299 298 297 296 294 292 289 290 291 291
295 291 289 289 288 282 281 280 284 286 290 292 291 289 291 293 292 291 290 287 286 293 287 284 287 289 288 289 290 291 294 297 300 302 299 298 296 297 294 292 291 291 291 291
290 288 282 284 283 285 287 287 287 290 291 290 290 289 289 291 289 291 285 288 290 283 280 281 287 287 287 290 291 291 292 295 297 300 299 297 296 295 295 294 293 292 290 290
289 289 282 284 289 290 290 290 289 289 291 290 288 290 291 288 286 286 285 283 278 279 280 284 288 289 289 289 290 290 292 294 299 299 298 296 295 295 295 294 294 293 291 290
289 288 285 287 286 285 286 288 289 292 291 293 292 287 285 283 283 281 278 278 276 281 284 287 289 289 289 289 290 291 293 295 298 299 298 297 295 295 295 295 293 293 292 289
286 284 289 288 287 288 288 290 292 292 290 288 288 282 281 285 281 278 281 280 283 286 288 289 289 289 289 290 290 291 293 294 296 298 298 298 296 296 295 292 293 293 293 292

GFSNW_sfc_thetae_072.txt.gz
Theta_e
308 308 307 306 305 303 306 309 302 314 315 302 304 298 297 296 298 300 298 298 295 294 294 293 293 293 296 299 299 294 297 293 289 290 296 298 296 293 292 288 285 289 288 288
307 307 306 306 305 303 305 301 305 315 312 298 297 297 295 296 295 296 296 296 297 297 294 291 294 295 299 299 298 295 297 292 286 288 292 295 292 294 294 293 293 287 285 288
308 307 306 306 305 303 304 300 297 302 307 302 294 292 292 292 298 297 297 296 297 295 293 297 293 294 297 298 298 298 299 294 288 284 288 290 289 291 293 292 287 287 288 291
308 307 305 305 304 303 304 299 297 297 295 297 295 295 293 291 290 295 297 294 293 292 290 291 291 294 295 297 298 297 297 289 291 291 291 291 290 290 291 290 291 287 290 291
308 306 305 305 304 302 303 297 295 298 295 295 294 293 292 291 292 292 290 290 292 293 290 292 290 292 292 291 295 294 296 289 291 288 290 291 288 291 292 292 292 292 293 293
308 306 305 304 304 302 299 300 302 297 295 292 292 293 291 291 293 292 293 293 292 291 293 296 296 296 296 295 293 293 291 290 286 284 290 290 286 290 292 293 294 294 290 296
308 306 304 303 303 301 301 299 297 295 292 292 292 291 292 291 291 290 293 293 291 294 298 298 297 296 295 295 294 295 289 287 287 285 287 279 291 296 296 294 296 298 298 299
308 307 305 303 303 301 302 302 297 295 291 292 291 291 291 292 293 291 291 293 295 298 296 292 291 292 293 291 291 293 295 290 285 283 283 288 291 295 294 293 294 299 298 299
307 308 305 303 302 301 302 302 301 296 290 293 292 290 291 289 289 290 291 295 298 297 294 291 285 287 287 287 288 295 294 291 286 286 281 280 291 296 299 299 289 300 300 299
307 308 306 304 303 302 302 301 302 295 289 294 294 291 289 291 290 289 292 292 293 297 293 288 285 286 291 286 286 287 288 286 283 285 283 289 296 298 300 286 290 300 300 300
305 307 307 305 303 302 302 301 302 296 291 292 294 294 292 292 292 289 293 292 293 293 288 288 289 288 289 288 290 289 288 287 286 287 284 282 299 298 291 297 302 301 301 300
305 306 308 306 304 302 302 297 301 300 293 293 298 298 299 297 296 294 295 293 293 295 291 293 292 287 290 288 283 294 287 292 290 291 291 300 301 300 300 300 298 302 300 302
303 305 308 307 304 302 301 299 299 297 292 293 295 295 300 302 301 302 292 296 296 297 300 295 294 287 292 287 289 290 293 296 290 291 295 296 298 300 301 301 300 302 302 300
303 304 307 306 304 303 302 299 301 299 294 287 294 300 297 302 302 301 299 297 301 300 300 294 291 289 295 291 292 290 293 294 292 294 296 294 297 299 301 302 303 301 300 300
303 303 305 306 303 303 301 301 300 301 294 290 292 298 300 302 301 300 300 298 294 294 291 292 290 295 293 294 292 289 295 291 288 287 292 290 294 300 302 300 300 300 297 297
303 304 305 305 302 301 298 293 299 302 299 291 287 298 297 299 300 299 299 296 293 294 291 292 295 299 293 289 289 295 295 297 294 289 294 295 300 302 302 299 298 299 299 296
303 304 305 302 301 300 293 292 298 301 301 290 288 293 298 299 300 301 295 295 293 293 293 293 294 296 293 289 287 292 294 292 294 298 301 299 301 298 300 300 299 300 297 295
303 303 301 300 300 299 295 299 300 302 296 293 286 290 294 301 298 295 302 294 292 293 293 294 293 294 292 288 292 292 290 292 296 297 300 301 302 300 299 299 298 293 292 292
303 300 299 299 296 293 297 302 302 302 296 288 289 287 291 299 297 299 299 298 288 294 291 293 294 290 288 289 289 289 290 291 293 298 301 300 298 296 297 296 293 291 290 290
300 298 293 289 296 303 304 297 292 289 292 292 288 295 291 296 296 295 297 298 295 291 294 294 290 289 294 292 290 290 292 294 297 297 296 297 295 295 294 292 291 291 290 290
295 291 290 295 299 298 294 290 289 289 287 291 292 294 291 298 290 291 295 291 294 288 290 289 289 290 291 291 290 292 295 297 299 301 300 300 296 296 293 292 292 291 291 290
294 293 296 296 292 290 286 287 291 288 287 292 292 295 295 297 299 291 292 290 292 285 296 290 288 290 291 290 290 292 294 296 298 301 301 299 296 297 294 292 292 292 292 291
295 292 290 288 288 282 282 282 286 287 293 295 295 292 295 295 296 293 293 287 288 297 290 287 289 292 290 290 291 291 293 294 299 302 301 298 298 297 295 293 293 292 291 291
289 287 283 284 284 287 289 290 292 294 294 294 295 293 293 296 291 293 287 291 292 286 284 281 288 290 290 290 291 291 291 294 297 301 300 297 296 297 295 295 294 292 290 289
289 290 283 285 291 295 295 294 292 294 296 294 293 294 294 292 289 291 289 285 280 284 284 286 290 290 290 290 291 290 291 293 296 301 300 299 297 296 296 295 295 294 292 289
290 290 287 291 291 291 293 292 292 297 296 297 297 292 288 285 287 283 279 282 281 284 286 290 292 291 291 290 291 291 292 294 296 298 300 300 298 297 296 297 295 294 293 290
287 287 292 292 293 292 292 294 295 299 294 291 293 286 281 289 284 281 284 283 285 288 289 291 291 291 291 292 291 292 292 293 295 297 300 301 301 299 297 294 296 296 295 294

GFSNW_sfc_thetae_075.txt.gz
Theta_e
310 309 308 307 306 303 306 311 304 317 319 304 307 300 301 297 299 302 300 300 297 295 296 295 295 294 298 302 301 296 299 294 291 293 298 300 299 295 294 289 287 289 289 288
310 308 308 307 306 304 305 303 304 317 311 301 300 302 300 300 298 299 298 298 300 300 296 293 296 297 302 302 300 297 299 294 288 290 294 296 294 294 295 295 294 289 285 289
309 309 307 306 305 304 304 303 299 306 307 305 298 298 298 297 300 298 299 298 299 297 295 297 295 296 300 301 300 301 300 295 290 285 289 293 290 291 293 290 289 289 289 291
309 309 307 306 305 304 305 307 303 301 298 300 300 300 299 297 296 299 300 297 296 295 292 294 294 296 297 299 302 299 298 290 291 292 293 293 292 292 292 291 293 288 291 291
308 309 307 306 305 303 306 300 299 303 299 301 299 298 298 296 297 298 296 295 295 295 292 293 291 294 296 295 297 296 297 289 292 289 292 292 290 291 292 293 292 292 294 293
307 309 307 305 305 304 305 305 305 300 299 300 297 298 297 296 297 297 296 295 294 293 294 297 297 298 298 297 294 294 293 291 290 286 291 291 287 292 293 294 295 294 289 294
307 309 307 305 304 303 305 304 300 297 295 297 297 298 297 296 297 295 297 297 294 297 301 300 299 298 298 297 296 298 293 292 290 286 289 280 291 298 297 294 296 297 297 298
306 307 308 305 304 304 303 305 300 299 293 295 295 296 296 297 299 297 295 296 298 301 296 293 293 294 295 295 297 298 297 293 287 284 284 289 292 296 296 294 294 300 300 299
304 306 308 306 304 303 302 305 303 298 293 296 296 294 296 295 294 294 295 298 301 299 295 293 287 287 290 290 291 299 297 296 288 288 282 280 293 298 301 300 289 300 300 300
303 304 306 308 305 303 301 302 305 298 293 297 296 295 294 296 294 292 296 295 296 299 293 291 288 288 293 288 288 289 290 288 286 287 284 290 298 300 301 288 291 301 301 301
303 304 305 308 306 303 301 300 304 297 295 295 297 299 296 296 296 292 297 295 296 295 291 291 292 289 291 291 293 291 290 289 288 289 285 283 300 299 292 299 303 302 302 302
303 304 304 305 307 304 302 297 303 303 295 294 298 300 302 301 300 297 299 296 295 296 294 294 292 291 291 291 287 296 290 293 290 292 292 301 303 302 304 303 302 303 303 302
303 303 304 305 307 304 302 300 301 300 294 295 297 298 304 306 304 306 295 297 300 297 302 296 294 289 295 289 290 293 296 298 294 293 297 298 301 303 303 302 302 303 304 302
303 303 303 304 306 305 302 298 301 300 294 288 296 303 299 305 306 304 304 302 303 301 298 295 293 291 297 292 294 292 294 297 293 295 297 297 298 300 302 303 301 302 303 302
303 304 303 303 305 304 302 301 301 302 293 289 292 301 303 306 305 303 303 301 298 295 292 292 291 296 296 296 296 293 295 291 288 287 293 293 294 301 300 299 300 300 300 300
304 304 304 303 305 302 298 292 300 301 301 292 289 301 301 303 304 302 300 299 297 294 294 293 296 300 298 292 291 294 297 298 296 289 294 294 297 300 302 300 300 300 301 300
304 304 303 304 303 299 293 293 297 303 302 292 289 294 300 303 302 301 302 300 294 293 293 294 295 297 296 290 288 295 297 294 293 297 298 296 299 299 300 299 300 298 296 296
304 303 303 303 301 298 294 299 300 302 297 296 288 291 296 302 297 296 301 295 295 293 294 297 295 295 292 288 294 295 292 291 295 296 296 299 302 300 296 298 295 294 292 292
303 303 301 299 296 292 296 302 301 304 297 289 289 288 292 302 298 301 300 300 290 295 290 295 295 291 290 292 291 290 290 290 291 295 300 301 298 295 297 294 292 291 291 291
302 299 294 290 295 301 303 296 291 291 292 292 290 296 291 299 299 296 296 299 293 289 294 295 291 291 295 294 291 290 292 294 296 296 298 298 295 295 295 291 291 291 290 291
297 292 291 296 300 299 295 291 288 288 287 291 293 294 292 300 292 292 298 295 297 291 291 291 290 290 292 294 291 293 294 295 296 301 302 301 297 296 294 293 292 291 291 290
296 295 297 296 292 290 287 286 291 289 288 293 292 294 296 298 301 295 298 291 295 287 298 291 290 291 294 291 291 293 294 294 298 301 301 302 297 297 295 294 293 292 291 291
297 294 290 291 290 283 281 282 287 289 294 295 296 293 296 297 298 295 293 290 290 299 292 290 290 293 294 292 292 292 293 295 299 302 302 301 298 299 296 295 295 294 292 290
291 288 283 285 284 286 288 289 292 297 296 296 296 294 294 295 293 294 289 294 296 289 286 285 291 293 293 293 293 291 291 294 297 300 300 300 301 298 297 296 296 295 292 289
290 290 284 286 292 294 295 298 296 296 298 297 295 296 295 295 291 293 292 287 285 288 286 289 292 294 294 292 292 291 291 294 296 299 300 300 302 299 297 298 297 295 294 291
290 290 289 292 291 292 295 295 294 297 298 299 299 293 290 289 290 286 285 285 283 286 290 292 294 293 294 293 292 292 293 294 295 298 298 300 300 300 298 298 298 296 294 294
289 289 293 293 293 294 295 296 296 300 296 292 294 288 285 291 286 284 288 285 288 292 291 293 294 293 294 295 294 295 295 295 295 295 297 299 301 302 299 297 297 299 296 295